Drummond Island, MI

10:19 PM EDT on April 28, 2017 (GMT -0400)
Drummond Island

Weather History for KDRM - July, 2013

Change the Weather History Date:

Wednesday, July 10, 2013

  Actual Average (KCIU) Record (KCIU)
Temperature  
Mean Temperature 64 °F -  
Max Temperature 69 °F 78 °F 86 °F (1988)
Min Temperature 60 °F 51 °F 42 °F (1978)
Growing Degree Days 14 (Base 50)    
Moisture  
Dew Point 61 °F    
Average Humidity 84    
Maximum Humidity 100    
Minimum Humidity 66    
Precipitation  
Precipitation 0.00 in - - ()
Sea Level Pressure  
Sea Level Pressure 29.75 in    
Wind  
Wind Speed 8 mph (West)    
Max Wind Speed 16 mph    
Max Gust Speed 28 mph    
Visibility 9 miles    
Events Rain    
Averages and records for this station are not official NWS values.
T = Trace of Precipitation, MM = Missing Value Source: NWS Daily Summary

Daily Weather History Graph

Daily Weather History Graph

Search for Another Location

Airport or City:

Trip Planner

Search our weather history database for the weather conditions in past years. The results will help you decide how hot, cold, wet, or windy it might be!

Date:

Astronomy

Jul. 10, 2013 Rise Set
Actual Time 5:54 AM EDT 9:25 PM EDT
Civil Twilight 5:17 AM EDT 10:03 PM EDT
Nautical Twilight 4:27 AM EDT 10:52 PM EDT
Astronomical Twilight 3:22 AM EDT 11:57 PM EDT
Moon 8:25 AM EDT (7/10) 10:22 PM EDT (7/10)
Length of Visible Light 16h 45m
Length of Day
15h 31m
Waxing Crescent, 5% of the Moon is Illuminated
Jul 10
Waxing Crescent
Jul 15
First Quarter
Jul 22
Full
Jul 29
Last Quarter
Aug 6
New

Hourly Weather History & Observations

Time (EDT) Temp. Dew Point Humidity Pressure Visibility Wind Dir Wind Speed Gust Speed Precip Events Conditions
12:16 AM 66.6 °F 66.6 °F 100% 29.74 in 5.0 mi SE 6.9 mph - N/A   Overcast
12:36 AM 66.2 °F 66.2 °F 100% 29.73 in 4.0 mi SSE 6.9 mph - N/A   Overcast
12:56 AM 66.2 °F 66.2 °F 100% 29.71 in 5.0 mi SE 4.6 mph - N/A Rain Light Rain
1:16 AM 66.2 °F 66.2 °F 100% 29.70 in 7.0 mi SSE 5.8 mph - N/A   Overcast
1:36 AM 65.8 °F 65.1 °F 98% 29.70 in 10.0 mi SSE 5.8 mph - N/A   Overcast
1:56 AM 65.8 °F 64.9 °F 97% 29.68 in 10.0 mi SE 3.5 mph - N/A   Mostly Cloudy
2:16 AM 65.7 °F 64.9 °F 98% 29.67 in 10.0 mi SSE 4.6 mph - N/A Rain Light Rain
2:36 AM 66.4 °F 66.0 °F 99% 29.66 in 10.0 mi SE 5.8 mph - N/A Rain Light Rain
2:56 AM 67.3 °F 67.3 °F 100% 29.65 in 7.0 mi SSE 3.5 mph - N/A   Light Drizzle
3:16 AM 68.2 °F 68.2 °F 100% 29.65 in 7.0 mi South 4.6 mph - N/A   Overcast
3:35 AM 68.7 °F 68.7 °F 100% 29.64 in 7.0 mi South 6.9 mph - N/A   Overcast
3:56 AM 68.5 °F 68.5 °F 100% 29.63 in 7.0 mi South 5.8 mph - N/A   Overcast
4:16 AM 68.4 °F 68.4 °F 100% 29.62 in 7.0 mi SSW 5.8 mph - N/A   Overcast
4:36 AM 69.3 °F 69.1 °F 99% 29.62 in 10.0 mi SW 9.2 mph - N/A   Overcast
4:56 AM 69.3 °F 68.2 °F 96% 29.62 in 10.0 mi SW 6.9 mph 19.6 mph N/A   Overcast
5:16 AM 68.9 °F 67.6 °F 96% 29.62 in 10.0 mi WSW 8.1 mph - N/A   Overcast
5:36 AM 68.0 °F 67.1 °F 97% 29.62 in 7.0 mi WSW 11.5 mph 18.4 mph N/A   Overcast
5:56 AM 67.6 °F 67.3 °F 99% 29.62 in 7.0 mi WSW 12.7 mph 21.9 mph N/A   Overcast
6:16 AM 67.6 °F 67.5 °F 99% 29.63 in 5.0 mi West 6.9 mph - N/A   Overcast
6:36 AM 68.7 °F 67.3 °F 95% 29.63 in 10.0 mi West 6.9 mph 17.3 mph N/A   Overcast
6:56 AM 68.9 °F 66.6 °F 92% 29.64 in 10.0 mi West 9.2 mph 17.3 mph N/A   Overcast
7:16 AM 68.9 °F 66.4 °F 92% 29.65 in 10.0 mi WNW 9.2 mph 17.3 mph N/A   Overcast
7:36 AM 68.4 °F 66.0 °F 92% 29.66 in 10.0 mi WNW 6.9 mph - N/A   Overcast
7:56 AM 68.2 °F 65.3 °F 90% 29.67 in 10.0 mi West 5.8 mph 17.3 mph N/A   Overcast
8:16 AM 68.0 °F 65.1 °F 90% 29.67 in 10.0 mi West 8.1 mph - N/A   Overcast
8:36 AM 68.0 °F 64.6 °F 89% 29.67 in 10.0 mi West 13.8 mph 20.7 mph N/A   Overcast
8:56 AM 68.0 °F 61.7 °F 80% 29.68 in 10.0 mi WNW 12.7 mph 23.0 mph N/A   Overcast
9:16 AM 67.6 °F 61.7 °F 81% 29.68 in 10.0 mi West 8.1 mph - N/A   Overcast
9:36 AM 67.1 °F 62.1 °F 84% 29.69 in 10.0 mi WNW 9.2 mph - N/A   Overcast
9:55 AM 66.7 °F 61.9 °F 84% 29.70 in 10.0 mi West 9.2 mph 19.6 mph N/A   Overcast
10:16 AM 65.8 °F 61.0 °F 84% 29.70 in 10.0 mi WNW 6.9 mph 18.4 mph N/A   Overcast
10:36 AM 65.8 °F 61.0 °F 84% 29.71 in 10.0 mi WNW 10.4 mph 18.4 mph N/A   Overcast
10:56 AM 65.8 °F 61.0 °F 84% 29.72 in 10.0 mi WNW 9.2 mph 18.4 mph N/A   Overcast
11:16 AM 64.9 °F 60.8 °F 86% 29.72 in 10.0 mi West 10.4 mph 20.7 mph N/A   Overcast
11:36 AM 63.3 °F 61.7 °F 94% 29.73 in 3.0 mi West 10.4 mph 20.7 mph N/A   Overcast
11:56 AM 64.8 °F 61.2 °F 88% 29.74 in 10.0 mi WNW 6.9 mph 17.3 mph N/A   Overcast
12:16 PM 63.9 °F 59.7 °F 86% 29.74 in 10.0 mi West 13.8 mph 21.9 mph N/A   Overcast
12:36 PM 63.1 °F 59.5 °F 88% 29.76 in 4.0 mi WNW 11.5 mph 21.9 mph N/A   Overcast
12:56 PM 61.7 °F 59.4 °F 92% 29.77 in 5.0 mi WNW 12.7 mph 20.7 mph N/A   Overcast
1:16 PM 61.3 °F 58.8 °F 91% 29.78 in 7.0 mi West 9.2 mph 19.6 mph N/A   Overcast
1:35 PM 62.1 °F 58.1 °F 87% 29.78 in 10.0 mi WNW 10.4 mph 20.7 mph N/A   Overcast
1:56 PM 64.2 °F 57.9 °F 80% 29.78 in 10.0 mi West 11.5 mph 20.7 mph N/A   Overcast
2:16 PM 65.1 °F 57.4 °F 76% 29.79 in 10.0 mi WNW 13.8 mph 20.7 mph N/A   Overcast
2:36 PM 68.0 °F 58.1 °F 71% 29.79 in 10.0 mi WNW 13.8 mph 23.0 mph N/A   Overcast
2:56 PM 68.2 °F 58.1 °F 70% 29.79 in 10.0 mi WNW 16.1 mph 24.2 mph N/A   Overcast
3:16 PM 68.2 °F 57.6 °F 69% 29.80 in 10.0 mi NW 10.4 mph 24.2 mph N/A   Scattered Clouds
3:36 PM 68.0 °F 57.7 °F 70% 29.80 in 10.0 mi WNW 11.5 mph 20.7 mph N/A   Scattered Clouds
3:56 PM 68.9 °F 58.3 °F 69% 29.80 in 10.0 mi WNW 12.7 mph 21.9 mph N/A   Scattered Clouds
4:16 PM 68.5 °F 58.3 °F 70% 29.80 in 10.0 mi NW 9.2 mph 21.9 mph N/A   Scattered Clouds
4:36 PM 68.4 °F 58.1 °F 70% 29.81 in 10.0 mi NW 9.2 mph 19.6 mph N/A   Clear
4:56 PM 67.3 °F 57.4 °F 70% 29.81 in 10.0 mi NW 13.8 mph 24.2 mph N/A   Clear
5:16 PM 66.7 °F 56.5 °F 70% 29.82 in 10.0 mi WNW 15.0 mph 27.6 mph N/A   Clear
5:36 PM 66.6 °F 56.1 °F 69% 29.81 in 10.0 mi WNW 15.0 mph 26.5 mph N/A   Clear
5:56 PM 65.5 °F 55.6 °F 70% 29.83 in 10.0 mi NW 11.5 mph 21.9 mph N/A   Scattered Clouds
6:16 PM 67.1 °F 55.8 °F 67% 29.82 in 10.0 mi WNW 11.5 mph 21.9 mph N/A   Mostly Cloudy
6:36 PM 67.1 °F 55.4 °F 66% 29.83 in 10.0 mi WNW 9.2 mph 20.7 mph N/A   Scattered Clouds
6:56 PM 66.2 °F 55.0 °F 67% 29.83 in 10.0 mi WNW 10.4 mph 20.7 mph N/A   Clear
7:16 PM 66.2 °F 54.7 °F 66% 29.83 in 10.0 mi NW 10.4 mph 25.3 mph N/A   Clear
7:36 PM 65.7 °F 54.5 °F 67% 29.83 in 10.0 mi NW 8.1 mph 19.6 mph N/A   Clear
7:56 PM 65.3 °F 54.5 °F 68% 29.85 in 10.0 mi NW 8.1 mph 18.4 mph N/A   Clear
8:16 PM 64.8 °F 53.6 °F 67% 29.85 in 10.0 mi NW 8.1 mph 21.9 mph N/A   Clear
8:36 PM 64.4 °F 54.1 °F 69% 29.86 in 10.0 mi NW 8.1 mph - N/A   Clear
8:56 PM 63.9 °F 53.6 °F 69% 29.87 in 10.0 mi NW 6.9 mph 16.1 mph N/A   Clear
9:16 PM 63.7 °F 53.6 °F 70% 29.87 in 10.0 mi WNW 8.1 mph 17.3 mph N/A   Clear
9:36 PM 63.1 °F 53.6 °F 71% 29.88 in 10.0 mi WNW 10.4 mph - N/A   Clear
9:56 PM 62.8 °F 53.6 °F 72% 29.89 in 10.0 mi WNW 8.1 mph 19.6 mph N/A   Clear
10:16 PM 62.1 °F 54.0 °F 75% 29.89 in 10.0 mi NW 5.8 mph - N/A   Clear
10:36 PM 61.5 °F 54.0 °F 76% 29.90 in 10.0 mi WNW 5.8 mph - N/A   Clear
10:56 PM 61.3 °F 54.5 °F 78% 29.90 in 10.0 mi Calm Calm - N/A   Clear
11:16 PM 60.8 °F 54.9 °F 81% 29.90 in 10.0 mi WNW 3.5 mph - N/A   Clear
11:36 PM 60.8 °F 54.7 °F 80% 29.91 in 10.0 mi NW 3.5 mph - N/A   Clear
11:56 PM 60.3 °F 54.1 °F 80% 29.91 in 10.0 mi WNW 6.9 mph - N/A   Clear